,,,PA_Meas_PMT16A,,PR_Meas_QMR101_102,,RH_Meas_QMH101,,SR_Meas_QMS101,,TA_Meas_QMH101,,GenWind,,GenWind,
date,time,status,PA,status,PR,status,RH,status,SR,status,TA,status,DirAvg,status,SpdAvg,
2014-04-04, 00:00:04,VALID,1009.87,VALID,0,INVALID,110.482,VALID,0,VALID,23.2069,VALID,73,VALID,0,
2014-04-04, 00:01:04,VALID,1009.88,VALID,0,INVALID,110.49,VALID,0,VALID,23.2087,VALID,73,VALID,0,
2014-04-04, 00:02:04,VALID,1009.88,VALID,0,INVALID,110.467,VALID,0,VALID,23.1874,VALID,74,VALID,0,
2014-04-04, 00:03:04,VALID,1009.88,VALID,0,INVALID,110.49,VALID,0,VALID,23.2087,VALID,73,VALID,0,
2014-04-04, 00:04:04,VALID,1009.88,VALID,0,INVALID,110.49,VALID,0,VALID,23.1679,VALID,73,VALID,0,
2014-04-04, 00:05:04,VALID,1009.88,VALID,0,INVALID,110.49,VALID,0,VALID,23.1697,VALID,73,VALID,0,
2014-04-04, 00:06:04,VALID,1009.86,VALID,0,INVALID,110.497,VALID,0,VALID,23.129,VALID,73,VALID,0,
2014-04-04, 00:07:04,VALID,1009.86,VALID,0,INVALID,110.52,VALID,0,VALID,23.1095,VALID,73,VALID,0,
2014-04-04, 00:08:04,VALID,1009.88,VALID,0,INVALID,110.512,VALID,0,VALID,23.09,VALID,73,VALID,0,
2014-04-04, 00:09:04,VALID,1009.87,VALID,0,INVALID,110.528,VALID,0,VALID,23.09,VALID,73,VALID,0,
2014-04-04, 00:10:04,VALID,1009.83,VALID,0,INVALID,110.512,VALID,0,VALID,23.1112,VALID,73,VALID,0,
2014-04-04, 00:11:04,VALID,1009.83,VALID,0,INVALID,110.436,VALID,0,VALID,23.1095,VALID,73,VALID,0,
2014-04-04, 00:12:04,VALID,1009.79,VALID,0,INVALID,110.39,VALID,0,VALID,23.1485,VALID,73,VALID,0,
2014-04-04, 00:13:04,VALID,1009.81,VALID,0,INVALID,110.337,VALID,0,VALID,23.1874,VALID,73,VALID,0,
2014-04-04, 00:14:04,VALID,1009.78,VALID,0,INVALID,110.284,VALID,0,VALID,23.2264,VALID,73,VALID,0,
2014-04-04, 00:15:04,VALID,1009.76,VALID,0,INVALID,110.268,VALID,0,VALID,23.2654,VALID,73,VALID,0,
2014-04-04, 00:16:04,VALID,1009.75,VALID,0,INVALID,110.253,VALID,0,VALID,23.2866,VALID,73,VALID,0,
2014-04-04, 00:17:04,VALID,1009.76,VALID,0,INVALID,110.207,VALID,0,VALID,23.2848,VALID,73,VALID,0,
2014-04-04, 00:18:04,VALID,1009.75,VALID,0,INVALID,110.261,VALID,0,VALID,23.2848,VALID,73,VALID,0,
2014-04-04, 00:19:04,VALID,1009.76,VALID,0,INVALID,110.223,VALID,0,VALID,23.2441,VALID,73,VALID,0,
2014-04-04, 00:20:04,VALID,1009.76,VALID,0,INVALID,110.215,VALID,0,VALID,23.2654,VALID,73,VALID,0,
2014-04-04, 00:21:04,VALID,1009.76,VALID,0,INVALID,110.2,VALID,0,VALID,23.2671,VALID,73,VALID,0,
2014-04-04, 00:22:04,VALID,1009.76,VALID,0,INVALID,110.207,VALID,0,VALID,23.2264,VALID,73,VALID,0,
2014-04-04, 00:23:04,VALID,1009.79,VALID,0,INVALID,110.238,VALID,0,VALID,23.2069,VALID,73,VALID,0,
2014-04-04, 00:24:04,VALID,1009.77,VALID,0,INVALID,110.215,VALID,0,VALID,23.1874,VALID,73,VALID,0,
2014-04-04, 00:25:04,VALID,1009.79,VALID,0,INVALID,110.185,VALID,0,VALID,23.1679,VALID,74,VALID,0,
2014-04-04, 00:26:04,VALID,1009.8,VALID,0,INVALID,110.162,VALID,0,VALID,23.1874,VALID,73,VALID,0,
2014-04-04, 00:27:04,VALID,1009.83,VALID,0,INVALID,110.124,VALID,0,VALID,23.2087,VALID,73,VALID,0,
2014-04-04, 00:28:04,VALID,1009.77,VALID,0,INVALID,110.124,VALID,0,VALID,23.2069,VALID,73,VALID,0,
2014-04-04, 00:29:04,VALID,1009.79,VALID,0,INVALID,110.078,VALID,0,VALID,23.2069,VALID,73,VALID,0,
2014-04-04, 00:30:04,VALID,1009.73,VALID,0,INVALID,110.093,VALID,0,VALID,23.2069,VALID,73,VALID,0,
2014-04-04, 00:31:04,VALID,1009.74,VALID,0,INVALID,110.108,VALID,0,VALID,23.2069,VALID,73,VALID,0,
2014-04-04, 00:32:04,VALID,1009.69,VALID,0,INVALID,110.093,VALID,0,VALID,23.2282,VALID,73,VALID,0,
2014-04-04, 00:33:04,VALID,1009.67,VALID,0,INVALID,110.078,VALID,0,VALID,23.2282,VALID,73,VALID,0,
2014-04-04, 00:34:04,VALID,1009.65,VALID,0,INVALID,110.078,VALID,0,VALID,23.1679,VALID,73,VALID,0,
2014-04-04, 00:35:04,VALID,1009.63,VALID,0,INVALID,110.078,VALID,0,VALID,23.1485,VALID,73,VALID,0,
2014-04-04, 00:36:04,VALID,1009.6,VALID,0,INVALID,110.116,VALID,0,VALID,23.129,VALID,73,VALID,0,
2014-04-04, 00:37:04,VALID,1009.62,VALID,0,INVALID,110.131,VALID,0,VALID,23.1307,VALID,73,VALID,0,
2014-04-04, 00:38:04,VALID,1009.62,VALID,0,INVALID,110.162,VALID,0,VALID,23.0705,VALID,73,VALID,0,
2014-04-04, 00:39:04,VALID,1009.62,VALID,0,INVALID,110.101,VALID,0,VALID,23.0511,VALID,73,VALID,0,
2014-04-04, 00:40:04,VALID,1009.63,VALID,0,INVALID,110.124,VALID,0,VALID,23.0723,VALID,73,VALID,0,
2014-04-04, 00:41:04,VALID,1009.62,VALID,0,INVALID,110.139,VALID,0,VALID,23.0528,VALID,73,VALID,0,
2014-04-04, 00:42:04,VALID,1009.64,VALID,0,INVALID,110.146,VALID,0.112112,VALID,23.0298,VALID,73,VALID,0,
2014-04-04, 00:43:04,VALID,1009.65,VALID,0,INVALID,110.04,VALID,0.112112,VALID,23.0493,VALID,73,VALID,0,
2014-04-04, 00:44:04,VALID,1009.67,VALID,0,INVALID,110.078,VALID,0,VALID,23.0298,VALID,73,VALID,0,
2014-04-04, 00:45:04,VALID,1009.71,VALID,0,INVALID,110.07,VALID,0,VALID,23.0511,VALID,73,VALID,0,
2014-04-04, 00:46:04,VALID,1009.67,VALID,0,INVALID,110.047,VALID,0,VALID,23.0493,VALID,73,VALID,0,
2014-04-04, 00:47:04,VALID,1009.66,VALID,0,INVALID,109.956,VALID,0.112112,VALID,23.0493,VALID,73,VALID,0,
2014-04-04, 00:48:04,VALID,1009.64,VALID,0,INVALID,109.994,VALID,0.112112,VALID,23.09,VALID,73,VALID,0,
2014-04-04, 00:49:04,VALID,1009.61,VALID,0,INVALID,109.933,VALID,0,VALID,23.0688,VALID,73,VALID,0,
2014-04-04, 00:50:04,VALID,1009.59,VALID,0,INVALID,109.948,VALID,0,VALID,23.0883,VALID,74,VALID,0,
2014-04-04, 00:51:04,VALID,1009.56,VALID,0,INVALID,109.94,VALID,0,VALID,23.1095,VALID,73,VALID,0,
2014-04-04, 00:52:04,VALID,1009.54,VALID,0,INVALID,109.918,VALID,0,VALID,23.129,VALID,73,VALID,0,
2014-04-04, 00:53:04,VALID,1009.55,VALID,0,INVALID,109.818,VALID,0.112112,VALID,23.1467,VALID,73,VALID,0,
2014-04-04, 00:54:04,VALID,1009.54,VALID,0,INVALID,109.818,VALID,0,VALID,23.1857,VALID,73,VALID,0,
2014-04-04, 00:55:04,VALID,1009.5,VALID,0,INVALID,109.78,VALID,0.112112,VALID,23.2246,VALID,73,VALID,0,
2014-04-04, 00:56:04,VALID,1009.48,VALID,0,INVALID,109.719,VALID,0.112112,VALID,23.2636,VALID,73,VALID,0,
2014-04-04, 00:57:04,VALID,1009.49,VALID,0,INVALID,109.681,VALID,0,VALID,23.2848,VALID,73,VALID,0,
2014-04-04, 00:58:04,VALID,1009.46,VALID,0,INVALID,109.651,VALID,0,VALID,23.3238,VALID,73,VALID,0,
2014-04-04, 00:59:04,VALID,1009.45,VALID,0,INVALID,109.643,VALID,0,VALID,23.3451,VALID,73,VALID,0,
2014-04-04, 01:00:04,VALID,1009.44,VALID,0,INVALID,109.643,VALID,0,VALID,23.3238,VALID,74,VALID,0,
2014-04-04, 01:01:04,VALID,1009.42,VALID,0,INVALID,109.735,VALID,0,VALID,23.3238,VALID,73,VALID,0,
2014-04-04, 01:02:04,VALID,1009.41,VALID,0,INVALID,109.712,VALID,0,VALID,23.3043,VALID,73,VALID,0,
2014-04-04, 01:03:04,VALID,1009.42,VALID,0,INVALID,109.719,VALID,0,VALID,23.3238,VALID,73,VALID,0,
2014-04-04, 01:04:04,VALID,1009.4,VALID,0,INVALID,109.719,VALID,0,VALID,23.3043,VALID,73,VALID,0,
2014-04-04, 01:05:04,VALID,1009.37,VALID,0,INVALID,109.666,VALID,0,VALID,23.3256,VALID,73,VALID,0,
2014-04-04, 01:06:04,VALID,1009.35,VALID,0,INVALID,109.62,VALID,0,VALID,23.3238,VALID,73,VALID,0,
2014-04-04, 01:07:04,VALID,1009.36,VALID,0,INVALID,109.681,VALID,0,VALID,23.3238,VALID,73,VALID,0,
2014-04-04, 01:08:04,VALID,1009.32,VALID,0,INVALID,109.696,VALID,0,VALID,23.3238,VALID,73,VALID,0,
2014-04-04, 01:09:04,VALID,1009.29,VALID,0,INVALID,109.62,VALID,0,VALID,23.3238,VALID,73,VALID,0,
2014-04-04, 01:10:04,VALID,1009.26,VALID,0,INVALID,109.559,VALID,0,VALID,23.3238,VALID,73,VALID,0,
2014-04-04, 01:11:04,VALID,1009.22,VALID,0,INVALID,109.582,VALID,0,VALID,23.322,VALID,73,VALID,0.379687,
2014-04-04, 01:12:04,VALID,1009.2,VALID,0,INVALID,109.597,VALID,0,VALID,23.3628,VALID,73,VALID,0.292578,
2014-04-04, 01:13:04,VALID,1009.21,VALID,0,INVALID,109.422,VALID,0,VALID,23.3628,VALID,73,VALID,0,
2014-04-04, 01:14:04,VALID,1009.2,VALID,0,INVALID,109.59,VALID,0,VALID,23.3628,VALID,73,VALID,0,
2014-04-04, 01:15:04,VALID,1009.2,VALID,0,INVALID,109.491,VALID,0,VALID,23.3823,VALID,73,VALID,0,
2014-04-04, 01:16:04,VALID,1009.18,VALID,0,INVALID,109.521,VALID,0,VALID,23.3823,VALID,73,VALID,0,
2014-04-04, 01:17:04,VALID,1009.15,VALID,0,INVALID,109.536,VALID,0,VALID,23.4035,VALID,73,VALID,0,
2014-04-04, 01:18:04,VALID,1009.14,VALID,0,INVALID,109.483,VALID,0,VALID,23.4035,VALID,73,VALID,0,
2014-04-04, 01:19:04,VALID,1009.14,VALID,0,INVALID,109.574,VALID,0,VALID,23.4017,VALID,73,VALID,0,
2014-04-04, 01:20:04,VALID,1009.13,VALID,0,INVALID,109.468,VALID,0,VALID,23.423,VALID,73,VALID,0,
2014-04-04, 01:21:04,VALID,1009.13,VALID,0,INVALID,109.43,VALID,0,VALID,23.4017,VALID,73,VALID,0,
2014-04-04, 01:22:04,VALID,1009.11,VALID,0,INVALID,109.521,VALID,0,VALID,23.4017,VALID,73,VALID,0,
2014-04-04, 01:23:04,VALID,1009.14,VALID,0,INVALID,109.483,VALID,0,VALID,23.423,VALID,73,VALID,0,
2014-04-04, 01:24:04,VALID,1009.13,VALID,0,INVALID,109.452,VALID,0,VALID,23.4017,VALID,73,VALID,0,
2014-04-04, 01:25:04,VALID,1009.13,VALID,0,INVALID,109.544,VALID,0,VALID,23.3805,VALID,73,VALID,0,
2014-04-04, 01:26:04,VALID,1009.16,VALID,0,INVALID,109.536,VALID,0,VALID,23.3823,VALID,73,VALID,0,
2014-04-04, 01:27:04,VALID,1009.16,VALID,0,INVALID,109.529,VALID,0,VALID,23.4017,VALID,73,VALID,0,
2014-04-04, 01:28:04,VALID,1009.16,VALID,0,INVALID,109.483,VALID,0,VALID,23.4017,VALID,73,VALID,0,
2014-04-04, 01:29:04,VALID,1009.12,VALID,0,INVALID,109.384,VALID,0,VALID,23.4017,VALID,73,VALID,0,
2014-04-04, 01:30:04,VALID,1009.15,VALID,0,INVALID,109.498,VALID,0,VALID,23.3823,VALID,73,VALID,0,
2014-04-04, 01:31:04,VALID,1009.15,VALID,0,INVALID,109.452,VALID,0,VALID,23.4017,VALID,73,VALID,0,
2014-04-04, 01:32:04,VALID,1009.14,VALID,0,INVALID,109.498,VALID,0,VALID,23.4017,VALID,73,VALID,0,
2014-04-04, 01:33:04,VALID,1009.12,VALID,0,INVALID,109.529,VALID,0,VALID,23.423,VALID,73,VALID,0,
2014-04-04, 01:34:04,VALID,1009.12,VALID,0,INVALID,109.399,VALID,0,VALID,23.3823,VALID,73,VALID,0,
2014-04-04, 01:35:04,VALID,1009.14,VALID,0,INVALID,109.544,VALID,0,VALID,23.4017,VALID,73,VALID,0,
2014-04-04, 01:36:04,VALID,1009.13,VALID,0,INVALID,109.483,VALID,0,VALID,23.3823,VALID,73,VALID,0,
2014-04-04, 01:37:04,VALID,1009.14,VALID,0,INVALID,109.506,VALID,0,VALID,23.3823,VALID,73,VALID,0,
2014-04-04, 01:38:04,VALID,1009.16,VALID,0,INVALID,109.613,VALID,0,VALID,23.3433,VALID,73,VALID,0,
2014-04-04, 01:39:04,VALID,1009.18,VALID,0,INVALID,109.521,VALID,0,VALID,23.3433,VALID,73,VALID,0,
2014-04-04, 01:40:04,VALID,1009.19,VALID,0,INVALID,109.521,VALID,0,VALID,23.3628,VALID,73,VALID,0,
2014-04-04, 01:41:04,VALID,1009.18,VALID,0,INVALID,109.468,VALID,0,VALID,23.384,VALID,73,VALID,0,
2014-04-04, 01:42:04,VALID,1009.2,VALID,0,INVALID,109.491,VALID,0,VALID,23.361,VALID,73,VALID,0,
2014-04-04, 01:43:04,VALID,1009.19,VALID,0,INVALID,109.552,VALID,0.112112,VALID,23.361,VALID,73,VALID,0,
2014-04-04, 01:44:04,VALID,1009.18,VALID,0,INVALID,109.475,VALID,0,VALID,23.3628,VALID,73,VALID,0,
2014-04-04, 01:45:04,VALID,1009.18,VALID,0,INVALID,109.529,VALID,0,VALID,23.3628,VALID,73,VALID,0,
2014-04-04, 01:46:04,VALID,1009.18,VALID,0,INVALID,109.529,VALID,0.112112,VALID,23.3415,VALID,74,VALID,0,
2014-04-04, 01:47:04,VALID,1009.19,VALID,0,INVALID,109.506,VALID,0,VALID,23.322,VALID,74,VALID,0,
2014-04-04, 01:48:04,VALID,1009.15,VALID,0,INVALID,109.513,VALID,0.112112,VALID,23.3026,VALID,73,VALID,0,
2014-04-04, 01:49:04,VALID,1009.15,VALID,0,INVALID,109.552,VALID,0.112112,VALID,23.2831,VALID,73,VALID,0,
2014-04-04, 01:50:04,VALID,1009.14,VALID,0,INVALID,109.597,VALID,0.112112,VALID,23.2831,VALID,74,VALID,0,
2014-04-04, 01:51:04,VALID,1009.13,VALID,0,INVALID,109.521,VALID,0.112112,VALID,23.2636,VALID,73,VALID,0,
2014-04-04, 01:52:04,VALID,1009.13,VALID,0,INVALID,109.635,VALID,0.112112,VALID,23.2441,VALID,74,VALID,0,
2014-04-04, 01:53:04,VALID,1009.1,VALID,0,INVALID,109.613,VALID,0.112112,VALID,23.2246,VALID,74,VALID,0,
2014-04-04, 01:54:04,VALID,1009.09,VALID,0,INVALID,109.544,VALID,0,VALID,23.2051,VALID,73,VALID,0,
2014-04-04, 01:55:04,VALID,1009.09,VALID,0,INVALID,109.582,VALID,0,VALID,23.2051,VALID,73,VALID,0,
2014-04-04, 01:56:04,VALID,1009.08,VALID,0,INVALID,109.635,VALID,0.112112,VALID,23.2069,VALID,73,VALID,0,
2014-04-04, 01:57:04,VALID,1009.09,VALID,0,INVALID,109.521,VALID,0,VALID,23.2264,VALID,73,VALID,0,
2014-04-04, 01:58:04,VALID,1009.07,VALID,0,INVALID,109.597,VALID,0,VALID,23.2069,VALID,73,VALID,0,
2014-04-04, 01:59:04,VALID,1009.07,VALID,0,INVALID,109.513,VALID,0,VALID,23.2459,VALID,73,VALID,0,
2014-04-04, 02:00:04,VALID,1009.06,VALID,0,INVALID,109.559,VALID,0,VALID,23.2459,VALID,73,VALID,0,
2014-04-04, 02:01:05,VALID,1009.08,VALID,0,INVALID,109.521,VALID,0,VALID,23.2264,VALID,73,VALID,0,
2014-04-04, 02:02:05,VALID,1009.05,VALID,0,INVALID,109.567,VALID,0,VALID,23.2069,VALID,73,VALID,0,
2014-04-04, 02:03:05,VALID,1009.06,VALID,0,INVALID,109.582,VALID,0,VALID,23.1874,VALID,73,VALID,0,
2014-04-04, 02:04:05,VALID,1009.05,VALID,0,INVALID,109.643,VALID,0,VALID,23.2087,VALID,73,VALID,0,
2014-04-04, 02:05:05,VALID,1009.05,VALID,0,INVALID,109.574,VALID,0,VALID,23.1874,VALID,73,VALID,0,
2014-04-04, 02:06:05,VALID,1009.03,VALID,0,INVALID,109.719,VALID,0,VALID,23.2087,VALID,73,VALID,0,
2014-04-04, 02:07:05,VALID,1009.01,VALID,0,INVALID,109.613,VALID,0,VALID,23.1874,VALID,73,VALID,0,
2014-04-04, 02:08:05,VALID,1008.98,VALID,0,INVALID,109.521,VALID,0,VALID,23.1679,VALID,73,VALID,0,
2014-04-04, 02:09:05,VALID,1009.01,VALID,0,INVALID,109.658,VALID,0,VALID,23.129,VALID,73,VALID,0,
2014-04-04, 02:10:05,VALID,1008.98,VALID,0,INVALID,109.62,VALID,0,VALID,23.129,VALID,73,VALID,0,
2014-04-04, 02:11:05,VALID,1008.98,VALID,0,INVALID,109.59,VALID,0,VALID,23.129,VALID,73,VALID,0,
2014-04-04, 02:12:05,VALID,1008.98,VALID,0,INVALID,109.552,VALID,0,VALID,23.129,VALID,73,VALID,0,
2014-04-04, 02:13:05,VALID,1008.98,VALID,0,INVALID,109.536,VALID,0,VALID,23.1502,VALID,73,VALID,0,
2014-04-04, 02:14:05,VALID,1008.99,VALID,0,INVALID,109.475,VALID,0,VALID,23.1485,VALID,73,VALID,0,
2014-04-04, 02:15:05,VALID,1008.99,VALID,0,INVALID,109.544,VALID,0,VALID,23.1485,VALID,73,VALID,0,
2014-04-04, 02:16:05,VALID,1009.01,VALID,0,INVALID,109.613,VALID,0,VALID,23.129,VALID,73,VALID,0,
2014-04-04, 02:17:05,VALID,1009.04,VALID,0,INVALID,109.582,VALID,0,VALID,23.09,VALID,73,VALID,0,
2014-04-04, 02:18:05,VALID,1009.06,VALID,0,INVALID,109.506,VALID,0,VALID,23.09,VALID,73,VALID,0,
2014-04-04, 02:19:05,VALID,1009.06,VALID,0,INVALID,109.62,VALID,0,VALID,23.0705,VALID,73,VALID,0,
2014-04-04, 02:20:05,VALID,1009.07,VALID,0,INVALID,109.552,VALID,0,VALID,23.0511,VALID,73,VALID,0,
2014-04-04, 02:21:05,VALID,1009.08,VALID,0,INVALID,109.582,VALID,0,VALID,23.0121,VALID,73,VALID,0,
2014-04-04, 02:22:05,VALID,1009.12,VALID,0,INVALID,109.643,VALID,0,VALID,22.9926,VALID,73,VALID,0,
2014-04-04, 02:23:05,VALID,1009.11,VALID,0,INVALID,109.536,VALID,0,VALID,22.9943,VALID,73,VALID,0,
2014-04-04, 02:24:05,VALID,1009.09,VALID,0,INVALID,109.681,VALID,0,VALID,22.9943,VALID,73,VALID,0,
2014-04-04, 02:25:05,VALID,1009.11,VALID,0,INVALID,109.62,VALID,0,VALID,22.9731,VALID,73,VALID,0,
2014-04-04, 02:26:05,VALID,1009.08,VALID,0,INVALID,109.605,VALID,0,VALID,22.9731,VALID,73,VALID,0,
2014-04-04, 02:27:05,VALID,1009.07,VALID,0,INVALID,109.597,VALID,0,VALID,22.9943,VALID,73,VALID,0,
2014-04-04, 02:28:05,VALID,1009.03,VALID,0,INVALID,109.62,VALID,0,VALID,22.9926,VALID,73,VALID,0,
2014-04-04, 02:29:05,VALID,1009.05,VALID,0,INVALID,109.498,VALID,0,VALID,23.0316,VALID,73,VALID,0,
2014-04-04, 02:30:05,VALID,1009.04,VALID,0,INVALID,109.491,VALID,0,VALID,23.0511,VALID,73,VALID,0,
2014-04-04, 02:31:05,VALID,1009.04,VALID,0,INVALID,109.536,VALID,0,VALID,23.0511,VALID,73,VALID,0,
2014-04-04, 02:32:05,VALID,1009.03,VALID,0,INVALID,109.475,VALID,0,VALID,23.0511,VALID,73,VALID,0,
2014-04-04, 02:33:05,VALID,1009.02,VALID,0,INVALID,109.468,VALID,0,VALID,23.0705,VALID,73,VALID,0,
2014-04-04, 02:34:05,VALID,1009.03,VALID,0,INVALID,109.43,VALID,0,VALID,23.0511,VALID,73,VALID,0,
2014-04-04, 02:35:05,VALID,1009,VALID,0,INVALID,109.475,VALID,0,VALID,23.0316,VALID,73,VALID,0,
2014-04-04, 02:36:05,VALID,1009.02,VALID,0,INVALID,109.506,VALID,0,VALID,23.0528,VALID,73,VALID,0,
2014-04-04, 02:37:05,VALID,1008.99,VALID,0,INVALID,109.491,VALID,0,VALID,23.0121,VALID,73,VALID,0,
2014-04-04, 02:38:05,VALID,1008.98,VALID,0,INVALID,109.491,VALID,0,VALID,22.9926,VALID,73,VALID,0,
2014-04-04, 02:39:05,VALID,1008.95,VALID,0,INVALID,109.384,VALID,0,VALID,23.0121,VALID,73,VALID,0,
2014-04-04, 02:40:05,VALID,1008.96,VALID,0,INVALID,109.292,VALID,0,VALID,23.0316,VALID,73,VALID,0,
2014-04-04, 02:41:05,VALID,1008.94,VALID,0,INVALID,109.285,VALID,0,VALID,23.0493,VALID,73,VALID,0,
2014-04-04, 02:42:05,VALID,1008.9,VALID,0,INVALID,109.323,VALID,0,VALID,23.1095,VALID,73,VALID,0,
2014-04-04, 02:43:05,VALID,1008.91,VALID,0,INVALID,109.407,VALID,0,VALID,23.09,VALID,73,VALID,0,
2014-04-04, 02:44:05,VALID,1008.91,VALID,0,INVALID,109.308,VALID,0,VALID,23.1095,VALID,73,VALID,0,
2014-04-04, 02:45:05,VALID,1008.89,VALID,0,INVALID,109.422,VALID,0,VALID,23.1095,VALID,73,VALID,0,
2014-04-04, 02:46:05,VALID,1008.87,VALID,0,INVALID,109.353,VALID,0,VALID,23.0705,VALID,73,VALID,0,
2014-04-04, 02:47:05,VALID,1008.88,VALID,0,INVALID,109.399,VALID,0,VALID,23.0316,VALID,74,VALID,0,
2014-04-04, 02:48:05,VALID,1008.87,VALID,0,INVALID,109.513,VALID,0,VALID,22.9926,VALID,73,VALID,0,
2014-04-04, 02:49:05,VALID,1008.87,VALID,0,INVALID,109.452,VALID,0,VALID,22.9926,VALID,73,VALID,0,
2014-04-04, 02:50:05,VALID,1008.86,VALID,0,INVALID,109.414,VALID,0,VALID,22.9731,VALID,73,VALID,0,
2014-04-04, 02:51:05,VALID,1008.86,VALID,0,INVALID,109.399,VALID,0,VALID,22.9731,VALID,73,VALID,0,
2014-04-04, 02:52:05,VALID,1008.85,VALID,0,INVALID,109.323,VALID,0,VALID,22.9536,VALID,73,VALID,0,
2014-04-04, 02:53:05,VALID,1008.84,VALID,0,INVALID,109.323,VALID,0,VALID,22.9342,VALID,73,VALID,0,
2014-04-04, 02:54:05,VALID,1008.83,VALID,0,INVALID,109.475,VALID,0,VALID,22.9342,VALID,73,VALID,0,
2014-04-04, 02:55:05,VALID,1008.81,VALID,0,INVALID,109.384,VALID,0,VALID,22.9147,VALID,73,VALID,0,
2014-04-04, 02:56:05,VALID,1008.81,VALID,0,INVALID,109.422,VALID,0,VALID,22.9342,VALID,73,VALID,0,
2014-04-04, 02:57:05,VALID,1008.82,VALID,0,INVALID,109.262,VALID,0,VALID,22.9342,VALID,73,VALID,0,
2014-04-04, 02:58:05,VALID,1008.8,VALID,0,INVALID,109.369,VALID,0,VALID,22.9536,VALID,73,VALID,0,
2014-04-04, 02:59:05,VALID,1008.8,VALID,0,INVALID,109.239,VALID,0,VALID,22.9749,VALID,73,VALID,0,
2014-04-04, 03:00:05,VALID,1008.79,VALID,0,INVALID,109.323,VALID,0,VALID,22.9943,VALID,73,VALID,0,
2014-04-04, 03:01:05,VALID,1008.83,VALID,0,INVALID,109.33,VALID,0,VALID,22.9731,VALID,73,VALID,0,
2014-04-04, 03:02:05,VALID,1008.79,VALID,0,INVALID,109.292,VALID,0,VALID,22.9731,VALID,73,VALID,0,
2014-04-04, 03:03:05,VALID,1008.79,VALID,0,INVALID,109.315,VALID,0,VALID,22.9536,VALID,73,VALID,0,
2014-04-04, 03:04:05,VALID,1008.79,VALID,0,INVALID,109.277,VALID,0,VALID,22.9731,VALID,73,VALID,0,
2014-04-04, 03:05:05,VALID,1008.76,VALID,0,INVALID,109.239,VALID,0,VALID,22.9926,VALID,73,VALID,0,
2014-04-04, 03:06:05,VALID,1008.77,VALID,0,INVALID,109.323,VALID,0,VALID,22.9909,VALID,73,VALID,0,
2014-04-04, 03:07:05,VALID,1008.78,VALID,0,INVALID,109.224,VALID,0,VALID,23.0723,VALID,73,VALID,0,
2014-04-04, 03:08:05,VALID,1008.76,VALID,0,INVALID,109.216,VALID,0,VALID,23.0316,VALID,73,VALID,0,
2014-04-04, 03:09:05,VALID,1008.76,VALID,0,INVALID,109.254,VALID,0,VALID,23.0511,VALID,73,VALID,0,
2014-04-04, 03:10:05,VALID,1008.78,VALID,0,INVALID,109.262,VALID,0,VALID,23.0511,VALID,73,VALID,0,
2014-04-04, 03:11:05,VALID,1008.75,VALID,0,INVALID,109.155,VALID,0,VALID,23.0511,VALID,73,VALID,0,
2014-04-04, 03:12:05,VALID,1008.78,VALID,0,INVALID,109.17,VALID,0,VALID,23.0511,VALID,73,VALID,0,
2014-04-04, 03:13:05,VALID,1008.77,VALID,0,INVALID,109.239,VALID,0,VALID,23.0528,VALID,73,VALID,0,
2014-04-04, 03:14:05,VALID,1008.77,VALID,0,INVALID,109.231,VALID,0,VALID,23.0121,VALID,73,VALID,0,
2014-04-04, 03:15:05,VALID,1008.74,VALID,0,INVALID,109.178,VALID,0,VALID,23.0121,VALID,73,VALID,0,
2014-04-04, 03:16:05,VALID,1008.76,VALID,0,INVALID,109.147,VALID,0,VALID,23.0121,VALID,73,VALID,0,
2014-04-04, 03:17:05,VALID,1008.76,VALID,0,INVALID,109.186,VALID,0,VALID,23.0333,VALID,73,VALID,0,
2014-04-04, 03:18:05,VALID,1008.79,VALID,0,INVALID,109.285,VALID,0,VALID,22.9731,VALID,73,VALID,0,
2014-04-04, 03:19:05,VALID,1008.78,VALID,0,INVALID,109.247,VALID,0,VALID,22.9536,VALID,73,VALID,0,
2014-04-04, 03:20:05,VALID,1008.81,VALID,0,INVALID,109.308,VALID,0,VALID,22.9342,VALID,73,VALID,0,
2014-04-04, 03:21:05,VALID,1008.81,VALID,0,INVALID,109.193,VALID,0,VALID,22.9147,VALID,73,VALID,0,
2014-04-04, 03:22:05,VALID,1008.82,VALID,0,INVALID,109.3,VALID,0,VALID,22.8969,VALID,73,VALID,0,
2014-04-04, 03:23:05,VALID,1008.83,VALID,0,INVALID,109.391,VALID,0,VALID,22.8562,VALID,73,VALID,0,
2014-04-04, 03:24:05,VALID,1008.83,VALID,0,INVALID,109.315,VALID,0,VALID,22.8173,VALID,73,VALID,0,
2014-04-04, 03:25:05,VALID,1008.84,VALID,0,INVALID,109.292,VALID,0,VALID,22.819,VALID,73,VALID,0,
2014-04-04, 03:26:05,VALID,1008.84,VALID,0,INVALID,109.338,VALID,0,VALID,22.7783,VALID,73,VALID,0,
2014-04-04, 03:27:05,VALID,1008.84,VALID,0,INVALID,109.254,VALID,0,VALID,22.7783,VALID,73,VALID,0,
2014-04-04, 03:28:05,VALID,1008.86,VALID,0,INVALID,109.269,VALID,0,VALID,22.7783,VALID,73,VALID,0,
2014-04-04, 03:29:05,VALID,1008.83,VALID,0,INVALID,109.315,VALID,0,VALID,22.7588,VALID,73,VALID,0,
2014-04-04, 03:30:05,VALID,1008.85,VALID,0,INVALID,109.308,VALID,0,VALID,22.7588,VALID,73,VALID,0,
2014-04-04, 03:31:05,VALID,1008.86,VALID,0,INVALID,109.247,VALID,0,VALID,22.7588,VALID,73,VALID,0,
2014-04-04, 03:32:05,VALID,1008.83,VALID,0,INVALID,109.315,VALID,0,VALID,22.7588,VALID,73,VALID,0,
2014-04-04, 03:33:05,VALID,1008.86,VALID,0,INVALID,109.224,VALID,0,VALID,22.7199,VALID,73,VALID,0,
2014-04-04, 03:34:05,VALID,1008.87,VALID,0,INVALID,109.292,VALID,0,VALID,22.7199,VALID,73,VALID,0,
2014-04-04, 03:35:05,VALID,1008.89,VALID,0,INVALID,109.262,VALID,0,VALID,22.7004,VALID,73,VALID,0,
2014-04-04, 03:36:05,VALID,1008.91,VALID,0,INVALID,109.285,VALID,0,VALID,22.7021,VALID,73,VALID,0,
2014-04-04, 03:37:05,VALID,1008.93,VALID,0,INVALID,109.323,VALID,0,VALID,22.6792,VALID,73,VALID,0,
2014-04-04, 03:38:05,VALID,1008.92,VALID,0,INVALID,109.17,VALID,0,VALID,22.7182,VALID,73,VALID,0,
2014-04-04, 03:39:05,VALID,1008.95,VALID,0,INVALID,109.17,VALID,0,VALID,22.7394,VALID,73,VALID,0,
2014-04-04, 03:40:05,VALID,1008.97,VALID,0,INVALID,109.208,VALID,0,VALID,22.7588,VALID,73,VALID,0,
2014-04-04, 03:41:05,VALID,1008.96,VALID,0,INVALID,109.201,VALID,0,VALID,22.7783,VALID,73,VALID,0.0847656,
2014-04-04, 03:42:05,VALID,1008.96,VALID,0,INVALID,109.102,VALID,0,VALID,22.8173,VALID,73,VALID,0.641016,
2014-04-04, 03:43:05,VALID,1008.97,VALID,0,INVALID,109.086,VALID,0,VALID,22.8173,VALID,73,VALID,0.648047,
2014-04-04, 03:44:05,VALID,1009,VALID,0,INVALID,109.132,VALID,0,VALID,22.7978,VALID,73,VALID,0.611719,
2014-04-04, 03:45:05,VALID,1009.01,VALID,0,INVALID,109.132,VALID,0,VALID,22.8173,VALID,73,VALID,0.232422,
2014-04-04, 03:46:05,VALID,1009.03,VALID,0,INVALID,109.132,VALID,0,VALID,22.8173,VALID,73,VALID,0,
2014-04-04, 03:47:05,VALID,1009.09,VALID,0,INVALID,109.109,VALID,0,VALID,22.8173,VALID,73,VALID,0,
2014-04-04, 03:48:05,VALID,1009.08,VALID,0,INVALID,109.125,VALID,0,VALID,22.8173,VALID,73,VALID,0,
2014-04-04, 03:49:05,VALID,1009.1,VALID,0,INVALID,109.071,VALID,0,VALID,22.8368,VALID,73,VALID,0,
2014-04-04, 03:50:05,VALID,1009.13,VALID,0,INVALID,109.132,VALID,0,VALID,22.8173,VALID,73,VALID,0,
2014-04-04, 03:51:05,VALID,1009.16,VALID,0,INVALID,109.094,VALID,0,VALID,22.8173,VALID,73,VALID,0,
2014-04-04, 03:52:05,VALID,1009.16,VALID,0,INVALID,109.094,VALID,0,VALID,22.8173,VALID,73,VALID,0,
2014-04-04, 03:53:05,VALID,1009.19,VALID,0,INVALID,109.071,VALID,0.112112,VALID,22.819,VALID,73,VALID,0,
2014-04-04, 03:54:05,VALID,1009.2,VALID,0,INVALID,109.071,VALID,0,VALID,22.8368,VALID,73,VALID,0,
2014-04-04, 03:55:05,VALID,1009.21,VALID,0,INVALID,109.033,VALID,0,VALID,22.8368,VALID,73,VALID,0,
2014-04-04, 03:56:05,VALID,1009.24,VALID,0,INVALID,109.079,VALID,0,VALID,22.8173,VALID,73,VALID,0,